Flag for India Weather past 2 weeks in Lucknow, Uttar Pradesh, India

Now
79 °F

Overcast.


Feels Like: 83 °F
Forecast: 80 / 92 °F
Wind: 7 mph from West

Location: Lucknow / Amausi

Current Time: Jul 1, 2015 at 4:03:46 AM

Latest Report: Jul 1, 2015 at 3:00 AM


Visibility: 2 mi

Pressure: 29.56 "Hg

Humidity: 94%

Dew point: 77 °F

Location of LucknowLocation

Historic Weather in Lucknow — Graph

°F

Lucknow temperature yesterday

Maximum temperature yesterday: 86 °F (at 5:00 PM)
Minimum temperature yesterday: 77 °F (at 5:30 AM)
Average temperature yesterday: 81 °F

Past Weeks' High & Low Weather Summary

 TemperatureHumidityPressure
High108 °F (Jun 20, 3:00 PM)100% (Jun 29, 11:30 AM)29.65 "Hg (Jun 29, 11:30 AM)
Low75 °F (Jun 29, 8:00 PM)30% (Jun 18, 5:00 PM)29.27 "Hg (Jun 25, 4:30 PM)
Average92 °F64%29.47 "Hg
* Reported Jun 16 3:00 AM — Jul 1 2:00 AM, Lucknow, Weather by CustomWeather, © 2015

Note: Actual official high and low records may vary slightly from our data, if they occured in-between our weather recording intervals... More about our weather records

Advertising

Lucknow weather history for previous 24 hours

 ConditionsComfort  
Time TempWeatherWind HumidityBarometerVisibility
2:00 AM
Wed, Jul 1
82 °FOvercast.7 mph89%29.56 "Hg1 mi
1:00 AM81 °FOvercast.2 mph94%29.59 "Hg1 mi
12:00 AM81 °FOvercast.No wind94%29.59 "Hg2 mi
10:00 PM
Tue, Jun 30
81 °FMostly cloudy.2 mph94%29.59 "Hg2 mi
8:30 PM81 °FPartly cloudy.2 mph89%29.59 "Hg2 mi
8:00 PM79 °FPartly cloudy.2 mph94%29.59 "Hg2 mi
7:30 PM79 °FBroken clouds.2 mph94%29.56 "Hg2 mi
7:00 PM81 °FBroken clouds.2 mph89%29.56 "Hg2 mi
6:00 PM82 °FBroken clouds.7 mph89%29.53 "Hg2 mi
5:30 PM82 °FBroken clouds.7 mph89%29.53 "Hg2 mi
5:00 PM86 °FBroken clouds.10 mph75%29.53 "Hg2 mi
4:30 PM84 °FBroken clouds.12 mph79%29.53 "Hg2 mi
4:00 PM84 °FBroken clouds.12 mph79%29.56 "Hg2 mi
3:30 PM84 °FBroken clouds.14 mph79%29.56 "Hg2 mi
3:00 PM84 °FBroken clouds.12 mph79%29.56 "Hg2 mi
2:30 PM84 °FBroken clouds.12 mph79%29.59 "Hg2 mi
2:00 PM84 °FBroken clouds.9 mph79%29.59 "Hg2 mi
1:30 PM84 °FCloudy.12 mph79%29.59 "Hg2 mi
1:00 PM84 °FCloudy.12 mph79%29.62 "Hg2 mi
12:30 PM84 °FBroken clouds.9 mph79%29.62 "Hg2 mi
12:00 PM84 °FBroken clouds.9 mph79%29.62 "Hg2 mi
11:30 AM82 °FBroken clouds.14 mph84%29.62 "Hg2 mi
11:00 AM81 °FFog.7 mph89%29.62 "Hg2 mi
9:00 AM79 °FDrizzle. More clouds than sun.6 mph100%29.62 "Hg1 mi
8:30 AM79 °FLight rain. More clouds than sun.5 mph100%29.59 "Hg1 mi
8:00 AM79 °FLight rain. More clouds than sun.7 mph94%29.59 "Hg1 mi
7:00 AM79 °FFog.2 mph94%29.56 "Hg1 mi
6:30 AM79 °FFog.3 mph94%29.56 "Hg1 mi
6:00 AM79 °FFog.5 mph94%29.56 "Hg1 mi
5:30 AM77 °FFog.2 mph100%29.56 "Hg1 mi
5:00 AM79 °FFog.2 mph94%29.56 "Hg1 mi
4:00 AM79 °FFog.2 mph94%29.56 "Hg1 mi
Weather by CustomWeather, © 2015

See weather overviewHow to use our weather pages